CAPE
0 0 0 0 0 0 0 0 0 0 0 0 0 0 0 0 0 0 0 6 0 0 0 105 130 42 0 0 0 0 0 0 0 0 0 0 0 0 0 0 0 0 0 0 0 0 0 0 0
0 0 0 0 0 0 0 0 0 0 0 0 0 0 0 0 0 0 0 3 0 0 0 10 52 21 0 0 0 0 0 0 0 0 0 0 0 0 0 0 1 6 11 4 0 0 0 0 0
0 0 0 0 0 0 0 0 0 0 0 0 0 0 0 0 0 0 0 0 0 0 2 9 33 75 53 36 0 14 39 11 0 0 0 0 0 6 39 0 0 4 16 63 21 8 0 1 1
0 0 0 0 0 0 0 0 0 0 0 0 0 0 0 0 0 0 0 5 0 0 28 34 122 149 143 104 78 152 166 150 126 75 52 84 158 129 53 21 32 28 59 12 11 31 78 6 0
0 0 0 0 0 0 0 0 0 0 0 0 0 0 0 0 0 0 0 22 10 25 69 115 228 239 219 201 217 241 248 232 329 325 228 441 334 255 154 85 60 57 56 24 17 13 13 76 51
0 0 0 0 0 0 0 0 0 0 0 0 0 0 0 0 0 0 0 3 15 29 75 92 344 274 327 287 432 456 357 324 354 625 617 642 478 366 201 116 81 72 40 4 9 17 12 35 76
0 0 0 0 0 0 0 0 0 0 0 0 0 0 0 0 0 0 0 0 6 15 39 77 358 470 411 601 727 543 316 375 572 656 480 338 173 19 0 0 5 24 33 20 17 20 28 34 36
0 0 0 0 0 0 0 0 0 0 0 0 0 0 0 0 0 0 0 0 11 31 44 76 260 485 694 978 868 610 520 461 113 144 60 0 0 0 0 0 0 4 7 6 9 4 2 11 32
0 0 0 0 0 0 0 0 0 0 0 0 0 0 0 0 0 0 0 2 24 76 115 184 328 477 582 758 811 929 435 229 182 31 0 0 0 0 0 0 0 0 1 7 8 3 3 3 9
0 0 0 0 0 0 0 0 0 0 0 0 0 0 0 0 0 0 0 0 2 53 159 250 354 425 460 540 575 478 271 209 18 0 0 0 0 0 0 0 0 1 14 20 32 50 17 25 3
0 0 0 0 0 0 0 0 0 0 0 0 0 0 0 0 0 0 0 0 0 18 149 256 426 385 349 230 95 258 51 1 0 0 0 0 0 0 0 0 0 0 0 0 0 0 6 31 32
0 0 0 0 0 0 0 0 0 0 0 0 0 0 0 0 0 0 0 0 0 0 43 192 408 259 143 57 12 0 0 0 0 0 0 0 0 0 0 0 0 0 0 0 4 0 1 26 45
0 0 0 0 0 0 0 0 0 0 0 0 0 0 0 0 0 0 0 0 0 0 0 80 147 118 45 2 0 0 0 0 0 0 0 0 0 0 0 0 0 0 3 8 10 14 4 21 44
0 0 0 0 0 0 0 0 0 0 0 0 0 0 0 0 0 0 0 0 0 0 0 0 23 8 8 0 0 0 0 0 0 0 0 0 0 0 0 0 0 0 0 3 0 1 1 1 5
0 0 0 0 0 0 0 0 0 0 0 0 0 0 0 0 0 0 0 0 0 0 0 0 0 0 0 0 0 0 0 0 0 0 0 0 0 0 0 0 0 0 0 0 0 0 0 0 0
0 0 0 0 0 0 0 0 0 0 0 0 0 0 0 0 0 0 0 0 0 0 0 0 0 0 0 0 0 0 0 0 0 0 0 0 0 0 0 0 2 0 0 0 0 0 0 0 0
0 0 0 0 0 0 0 0 0 0 0 0 0 0 0 0 0 0 0 0 0 0 0 0 0 0 0 0 0 0 1 1 0 0 0 0 0 0 0 0 0 0 0 0 0 0 0 0 0
0 0 0 0 0 0 0 0 0 0 0 0 0 0 0 0 0 0 0 0 0 0 0 0 0 0 0 0 0 3 1 0 0 0 0 0 0 2 2 0 0 0 0 0 0 0 0 3 0
0 0 0 0 0 0 0 0 0 0 0 0 0 0 0 0 0 0 0 0 0 0 0 0 0 0 0 0 2 0 3 0 0 0 0 0 7 7 0 0 0 0 0 0 0 0 0 13 14
0 0 0 0 0 0 0 0 0 0 0 0 0 0 0 0 0 0 0 0 0 0 0 0 0 0 0 0 0 0 0 0 0 0 5 8 7 0 0 0 0 0 0 0 0 0 0 1 46
0 0 0 0 0 0 0 0 0 0 0 0 0 0 0 0 0 0 0 0 0 0 0 0 0 0 0 1 0 0 0 0 0 0 0 0 0 3 1 4 0 0 0 0 0 0 0 0 8
0 0 0 0 0 0 0 0 0 0 0 0 0 0 0 0 0 0 0 0 0 0 0 0 0 0 0 0 0 0 0 0 0 0 0 0 0 5 0 1 0 0 0 0 0 0 3 5 35
0 0 0 0 0 0 0 0 0 0 0 0 0 0 0 0 0 0 0 0 0 0 0 0 0 0 0 0 0 0 0 0 0 0 0 0 0 10 0 0 0 0 0 0 0 0 0 10 25
0 0 0 0 0 0 0 0 0 0 0 0 0 0 0 0 0 0 0 0 0 0 0 0 0 0 0 0 0 0 0 0 0 0 0 0 0 20 0 0 0 0 0 0 0 0 0 1 4
0 0 0 0 0 0 0 0 0 0 0 0 0 0 0 0 0 0 0 0 0 0 0 0 0 0 0 0 0 0 0 0 0 0 0 0 0 10 0 0 0 0 0 13 13 5 0 0 0
0 0 0 0 0 0 0 0 0 0 0 0 0 0 0 0 0 0 0 0 0 0 0 0 0 0 0 0 0 0 0 0 0 0 0 0 0 0 0 0 0 19 43 19 28 17 0 0 0
0 0 0 0 0 0 0 0 0 0 0 0 0 0 0 0 0 0 0 0 0 0 0 0 0 0 0 0 0 0 0 0 0 0 0 0 0 0 0 0 4 29 37 42 40 35 30 0 1
0 0 0 0 0 0 0 0 0 0 0 0 0 0 0 0 0 0 0 0 0 0 0 0 0 0 0 0 0 0 0 0 0 0 0 0 0 0 0 0 5 14 36 35 30 50 46 19 27
0 0 0 0 0 0 0 0 0 0 0 0 0 0 0 0 0 0 0 0 0 0 0 0 0 0 0 0 0 1 1 0 0 0 0 0 0 0 0 0 0 0 7 40 33 27 29 22 31
0 0 0 0 0 0 0 0 0 0 0 0 0 0 0 0 0 0 0 0 0 0 0 0 0 0 0 0 0 1 2 0 0 0 0 0 0 0 0 0 4 2 13 26 18 21 15 7 8
CIN
-0 -0 -0 -0 -0 -0 -0 -0 -0 -0 -0 -0 -0 -0 -0 -0 -0 -0 -0 -533 -0 -0 -0 -429 -329 -307 -0 -0 -0 -0 -0 -0 -0 -0 -0 -0 -0 -0 -0 -0 -0 -0 -0 -0 -0 -0 -0 -0 -0
-0 -0 -0 -0 -0 -0 -0 -0 -0 -0 -0 -0 -0 -0 -0 -0 -0 -0 -0 -307 -0 -0 -0 -478 -371 -335 -0 -0 -0 -0 -0 -0 -0 -0 -0 -0 -0 -0 -0 -0 -0 -0 -0 -0 -0 -0 -0 -0 -0
-0 -0 -0 -0 -0 -0 -0 -0 -0 -0 -0 -0 -0 -0 -0 -0 -0 -0 -0 -0 -0 -0 -266 -472 -364 -318 -280 -246 -0 -160 -163 -108 -0 -0 -0 -0 -0 -2 -127 -0 -0 -0 -0 -128 -0 -0 -0 -0 -0
-0 -0 -0 -0 -0 -0 -0 -0 -0 -0 -0 -0 -0 -0 -0 -0 -0 -0 -0 -550 -0 -0 -366 -462 -351 -327 -275 -257 -227 -181 -132 -98 -74 -66 -53 -67 -47 -63 -125 -4 -4 -0 -194 -0 -0 -3 -140 -0 -0
-0 -0 -0 -0 -0 -0 -0 -0 -0 -0 -0 -0 -0 -0 -0 -0 -0 -0 -0 -488 -349 -508 -518 -470 -339 -280 -279 -260 -224 -180 -148 -109 -49 -8 -16 -0 -4 -11 -24 -82 -0 -0 -0 -0 -0 -0 -1 -0 -0
-0 -0 -0 -0 -0 -0 -0 -0 -0 -0 -0 -0 -0 -0 -0 -0 -0 -0 -0 -233 -468 -448 -496 -484 -330 -285 -256 -261 -196 -159 -139 -104 -65 -1 -0 -0 -0 -0 -8 -53 -21 -78 -0 -0 -0 -0 -0 -0 -1
-0 -0 -0 -0 -0 -0 -0 -0 -0 -0 -0 -0 -0 -0 -0 -0 -0 -0 -0 -7 -482 -532 -525 -482 -335 -277 -262 -194 -175 -163 -174 -112 -38 -8 -5 -4 -23 -7 -0 -0 -0 -0 -0 -0 -0 -0 -0 -0 -0
-0 -0 -0 -0 -0 -0 -0 -0 -0 -0 -0 -0 -0 -0 -0 -0 -0 -0 -0 -0 -505 -529 -521 -480 -391 -313 -234 -145 -136 -163 -156 -125 -178 -107 -76 -0 -0 -0 -0 -0 -0 -0 -0 -0 -0 -0 -0 -0 -1
-0 -0 -0 -0 -0 -0 -0 -0 -0 -0 -0 -0 -0 -0 -0 -0 -0 -0 -0 -474 -509 -517 -521 -482 -391 -339 -277 -180 -133 -99 -190 -218 -177 -174 -0 -0 -0 -0 -0 -0 -0 -0 -0 -0 -0 -0 -0 -0 -0
-0 -0 -0 -0 -0 -0 -0 -0 -0 -0 -0 -0 -0 -0 -0 -0 -0 -0 -0 -0 -414 -436 -498 -470 -420 -366 -348 -265 -216 -221 -253 -223 -256 -0 -0 -0 -0 -0 -0 -0 -0 -0 -0 -0 -0 -0 -0 -0 -0
-0 -0 -0 -0 -0 -0 -0 -0 -0 -0 -0 -0 -0 -0 -0 -0 -0 -0 -0 -0 -0 -406 -488 -504 -436 -423 -401 -392 -419 -303 -369 -49 -0 -0 -0 -0 -0 -0 -0 -0 -0 -0 -0 -0 -0 -0 -1 -3 -3
-0 -0 -0 -0 -0 -0 -0 -0 -0 -0 -0 -0 -0 -0 -0 -0 -0 -0 -0 -0 -0 -0 -503 -556 -484 -491 -495 -489 -475 -0 -0 -0 -0 -0 -0 -0 -0 -0 -0 -0 -0 -0 -0 -2 -83 -1 -2 -9 -8
-0 -0 -0 -0 -0 -0 -0 -0 -0 -0 -0 -0 -0 -0 -0 -0 -0 -0 -0 -0 -0 -0 -0 -595 -598 -567 -563 -316 -0 -0 -0 -0 -0 -0 -0 -0 -0 -0 -0 -0 -0 -0 -37 -56 -34 -56 -44 -16 -9
-0 -0 -0 -0 -0 -0 -0 -0 -0 -0 -0 -0 -0 -0 -0 -0 -0 -0 -0 -0 -0 -0 -0 -0 -646 -623 -617 -0 -0 -0 -0 -0 -0 -0 -0 -0 -0 -0 -0 -0 -0 -0 -22 -48 -0 -16 -47 -5 -4
-0 -0 -0 -0 -0 -0 -0 -0 -0 -0 -0 -0 -0 -0 -0 -0 -0 -0 -0 -0 -0 -0 -0 -0 -183 -25 -0 -0 -0 -0 -0 -0 -0 -0 -0 -0 -0 -0 -0 -0 -0 -0 -0 -0 -0 -0 -0 -0 -0
-0 -0 -0 -0 -0 -0 -0 -0 -0 -0 -0 -0 -0 -0 -0 -0 -0 -0 -0 -0 -0 -0 -0 -0 -0 -0 -0 -0 -0 -0 -0 -0 -0 -0 -0 -0 -0 -0 -0 -0 -35 -0 -0 -0 -0 -0 -0 -0 -0
-0 -0 -0 -0 -0 -0 -0 -0 -0 -0 -0 -0 -0 -0 -0 -0 -0 -0 -0 -0 -0 -0 -0 -0 -0 -0 -0 -0 -0 -0 -153 -129 -0 -0 -0 -0 -0 -0 -0 -0 -0 -0 -0 -0 -0 -0 -0 -0 -0
-0 -0 -0 -0 -0 -0 -0 -0 -0 -0 -0 -0 -0 -0 -0 -0 -0 -0 -0 -0 -0 -0 -0 -0 -0 -0 -0 -0 -0 -451 -109 -0 -0 -0 -0 -0 -25 -52 -42 -0 -0 -0 -0 -0 -0 -0 -0 -15 -0
-0 -0 -0 -0 -0 -0 -0 -0 -0 -0 -0 -0 -0 -0 -0 -0 -0 -0 -0 -0 -0 -0 -0 -0 -0 -0 -0 -0 -444 -0 -251 -0 -0 -0 -0 -0 -54 -60 -0 -0 -0 -0 -0 -0 -0 -0 -0 -21 -74
-0 -0 -0 -0 -0 -0 -0 -0 -0 -0 -0 -0 -0 -0 -0 -0 -0 -0 -0 -0 -0 -0 -0 -0 -0 -0 -0 -0 -0 -0 -0 -0 -0 -0 -152 -79 -58 -0 -15 -0 -0 -0 -0 -0 -0 -0 -0 -33 -66
-0 -0 -0 -0 -0 -0 -0 -0 -0 -0 -0 -0 -0 -0 -0 -0 -0 -0 -0 -0 -0 -0 -0 -0 -0 -0 -0 -203 -0 -0 -0 -0 -0 -0 -0 -0 -0 -78 -34 -34 -0 -0 -0 -0 -0 -0 -0 -8 -68
-0 -0 -0 -0 -0 -0 -0 -0 -0 -0 -0 -0 -0 -0 -0 -0 -0 -0 -0 -0 -0 -0 -0 -0 -0 -0 -0 -0 -0 -0 -0 -0 -0 -0 -0 -0 -0 -73 -0 -4 -0 -0 -0 -0 -0 -0 -54 -46 -28
-0 -0 -0 -0 -0 -0 -0 -0 -0 -0 -0 -0 -0 -0 -0 -0 -0 -0 -0 -0 -0 -0 -0 -0 -0 -0 -0 -0 -0 -0 -0 -0 -0 -0 -0 -0 -0 -68 -3 -0 -0 -0 -0 -0 -0 -0 -0 -49 -36
-0 -0 -0 -0 -0 -0 -0 -0 -0 -0 -0 -0 -0 -0 -0 -0 -0 -0 -0 -0 -0 -0 -0 -0 -0 -0 -0 -0 -0 -0 -0 -0 -0 -0 -0 -0 -0 -38 -0 -0 -0 -0 -0 -0 -0 -0 -0 -17 -44
-0 -0 -0 -0 -0 -0 -0 -0 -0 -0 -0 -0 -0 -0 -0 -0 -0 -0 -0 -0 -0 -0 -0 -0 -0 -0 -0 -0 -0 -0 -0 -0 -0 -0 -0 -0 -0 -61 -0 -0 -0 -0 -0 -83 -98 -114 -0 -0 -0
-0 -0 -0 -0 -0 -0 -0 -0 -0 -0 -0 -0 -0 -0 -0 -0 -0 -0 -0 -0 -0 -0 -0 -0 -0 -0 -0 -0 -0 -0 -0 -0 -0 -0 -0 -0 -0 -2 -0 -0 -0 -56 -61 -76 -86 -89 -0 -0 -0
-0 -0 -0 -0 -0 -0 -0 -0 -0 -0 -0 -0 -0 -0 -0 -0 -0 -0 -0 -0 -0 -0 -0 -0 -0 -0 -0 -0 -0 -0 -0 -0 -0 -0 -0 -0 -0 -0 -0 -0 -31 -60 -59 -65 -67 -65 -65 -0 -11
-0 -0 -0 -0 -0 -0 -0 -0 -0 -0 -0 -0 -0 -0 -0 -0 -0 -0 -0 -0 -0 -0 -0 -0 -0 -0 -0 -0 -0 -0 -3 -0 -0 -0 -0 -0 -0 -0 -0 -0 -93 -77 -61 -65 -61 -44 -48 -54 -62
-0 -0 -0 -0 -0 -0 -0 -0 -0 -0 -0 -0 -0 -0 -0 -0 -0 -0 -0 -0 -0 -0 -0 -0 -0 -0 -0 -0 -0 -28 -31 -0 -0 -0 -0 -0 -0 -0 -0 -0 -0 -0 -65 -54 -54 -51 -49 -55 -50
-0 -0 -0 -0 -0 -0 -0 -0 -0 -0 -0 -0 -0 -0 -0 -0 -0 -0 -0 -0 -0 -0 -0 -0 -0 -0 -0 -0 -0 -27 -41 -0 -0 -0 -0 -0 -0 -0 -0 -0 -98 -81 -69 -59 -60 -65 -67 -74 -80
Wind_Speed
10 11 11 12 15 16 17 16 15 18 18 18 14 12 13 15 16 22 21 8 13 7 7 5 4 4 5 6 7 8 10 10 11 11 12 13 15 16 16 18 19 21 23 23 23 24 23 22 21
7 8 12 13 16 16 17 15 17 18 20 19 16 13 16 17 18 19 15 8 10 8 7 6 5 4 5 6 7 9 10 10 11 13 15 15 16 19 18 18 20 21 22 22 23 23 24 24 22
6 10 12 13 14 13 17 17 21 27 28 13 14 13 18 21 17 17 15 7 9 6 6 5 6 5 5 6 7 8 8 9 10 11 14 17 18 19 19 19 22 23 25 23 23 23 23 24 23
11 13 13 14 13 12 14 19 25 27 28 16 17 19 19 15 17 15 10 6 6 6 5 5 5 5 4 5 7 7 8 8 9 10 12 15 15 16 18 17 17 20 24 26 25 23 22 22 23
12 13 14 16 15 14 16 19 24 24 25 24 18 20 19 17 14 12 7 5 4 5 4 4 4 3 3 4 6 7 9 11 11 11 13 14 17 17 15 16 17 20 22 25 26 26 26 25 24
14 15 16 17 16 17 18 19 20 19 21 25 20 21 23 21 13 10 6 3 4 4 4 3 2 2 2 3 5 6 7 9 12 12 13 15 15 16 16 17 19 22 22 24 26 26 28 28 27
17 17 20 21 21 26 21 17 18 19 26 26 22 23 22 23 12 9 5 2 3 3 3 3 3 1 1 1 4 6 8 10 12 14 14 15 16 17 19 20 20 21 21 22 24 27 31 30 25
15 19 23 22 23 26 21 21 17 20 28 24 20 24 30 29 15 10 6 1 2 2 2 1 2 1 1 1 3 6 9 12 14 14 15 16 18 19 20 21 20 20 20 20 21 24 27 26 23
16 24 25 21 23 20 22 27 25 24 26 25 24 27 29 29 19 10 5 4 3 4 2 3 3 3 2 3 5 7 10 13 14 15 16 17 18 19 21 20 20 20 20 21 20 17 23 24 24
23 27 25 20 21 23 30 30 35 35 39 32 34 30 29 28 15 7 5 5 5 5 3 4 2 1 3 4 6 9 12 15 16 16 17 18 17 18 17 18 19 21 21 22 21 21 15 19 20
28 33 23 28 21 31 35 38 33 36 38 37 40 43 38 27 13 8 6 8 8 5 5 4 3 2 3 4 6 10 14 16 16 16 16 15 16 17 15 18 19 21 22 22 21 21 18 16 16
36 33 28 27 35 37 34 38 43 42 27 34 42 40 34 23 14 11 9 8 7 7 6 4 3 2 1 5 7 11 14 15 15 14 13 12 13 14 14 15 15 18 19 20 19 20 17 15 15
38 35 34 35 38 39 39 39 43 27 30 41 41 42 18 19 13 13 10 8 9 9 7 5 3 2 1 5 8 11 12 12 13 13 12 11 11 11 10 13 16 17 18 18 17 16 16 14 14
31 35 38 38 39 26 45 46 39 32 34 45 43 44 42 16 14 11 8 10 10 9 8 4 4 2 1 5 8 9 10 11 13 12 11 11 11 11 10 12 13 14 17 16 15 15 14 13 13
36 43 40 37 34 36 41 45 29 36 45 39 45 44 41 14 18 13 17 11 11 9 7 5 4 2 1 4 8 9 9 12 12 12 12 10 9 9 10 13 12 12 14 12 13 14 14 13 14
34 37 44 34 28 34 28 45 44 48 33 26 22 34 38 17 12 16 17 12 8 7 6 4 3 2 1 5 8 9 9 12 12 13 12 11 8 8 10 12 11 10 9 10 11 15 15 14 15
42 50 44 40 38 39 35 48 44 40 34 41 31 20 16 18 23 13 13 10 7 6 6 6 5 2 0 5 8 9 10 13 13 15 14 13 10 10 10 12 11 9 9 10 14 15 13 13 15
42 44 45 48 42 38 44 43 48 46 37 38 34 37 25 37 34 11 7 8 6 5 6 7 5 2 1 6 9 10 13 14 16 16 15 13 9 8 7 10 10 9 9 12 13 11 9 12 13
40 44 49 47 37 42 43 49 47 45 40 42 42 42 41 38 34 15 7 4 4 4 6 7 5 2 2 6 9 12 16 16 18 18 16 13 11 9 9 12 10 7 8 10 9 9 7 7 10
40 45 51 53 39 41 48 52 48 46 44 37 36 39 37 34 20 13 6 2 6 8 8 7 4 2 2 6 10 15 16 16 17 17 16 14 14 12 10 9 7 8 8 9 7 6 8 9 15
33 35 50 52 42 44 47 52 48 41 35 32 34 32 32 30 9 8 3 2 2 7 10 7 4 2 3 7 12 15 16 17 18 17 18 16 15 15 10 8 8 8 8 8 9 13 2 17 21
24 25 43 47 42 45 28 45 44 43 43 39 37 34 35 27 15 7 4 2 5 9 9 7 5 3 4 8 12 14 16 19 16 17 18 17 17 15 13 11 10 11 13 17 25 27 26 25 27
25 27 33 39 42 42 42 43 40 33 39 39 38 37 35 20 8 3 4 6 9 11 10 7 5 4 6 8 11 14 17 16 16 17 17 17 16 14 13 13 15 18 19 22 26 27 26 25 25
25 29 30 33 38 50 46 40 37 35 36 31 28 26 26 11 7 8 9 10 12 12 10 7 6 6 7 8 10 13 16 14 16 17 18 16 13 13 14 17 19 20 21 22 25 25 26 25 24
21 19 25 30 35 43 31 32 37 28 4 18 30 30 17 9 9 10 11 13 14 13 10 7 7 7 7 9 10 13 15 15 17 18 16 15 13 16 18 20 20 18 20 21 23 24 25 26 25
24 26 30 40 40 37 27 37 35 19 18 28 28 12 6 7 8 10 12 14 13 12 9 8 8 8 9 10 11 13 14 17 18 18 16 16 17 20 21 23 18 16 14 19 21 22 25 23 22
29 32 23 34 29 31 28 33 32 30 32 29 26 11 6 8 10 12 13 15 13 13 10 11 10 9 10 10 11 13 14 17 18 19 18 19 21 22 23 23 15 14 15 16 20 21 23 22 21
32 24 31 33 35 33 29 32 29 18 19 19 20 8 10 11 12 13 15 15 14 13 13 12 11 11 12 11 12 13 14 16 17 17 20 21 22 23 23 22 15 14 14 15 16 18 18 20 21
31 30 27 27 33 27 32 31 24 30 29 27 16 8 13 13 14 14 17 16 14 13 14 13 12 12 12 12 13 13 14 15 16 17 18 20 22 24 23 22 17 15 15 14 13 15 17 17 19
33 36 32 35 35 37 28 31 17 20 25 25 22 8 10 14 15 15 18 17 15 14 15 14 13 13 12 13 14 14 15 16 16 17 20 21 23 23 23 23 20 14 13 12 14 15 13 14 15
Wind_Direction
57 54 32 15 344 349 347 352 0 358 358 356 7 8 0 354 351 344 351 58 24 73 47 94 79 37 25 12 4 356 352 348 343 341 337 332 325 323 321 319 314 310 306 305 304 299 297 296 294
60 22 0 356 342 340 346 357 351 353 347 348 354 354 351 346 340 344 0 40 43 79 66 91 96 80 56 39 24 7 357 351 344 332 326 324 318 314 313 315 313 310 306 306 305 302 297 292 292
360 337 333 340 342 337 343 350 348 340 340 356 353 352 346 340 341 341 353 59 52 64 70 91 110 96 75 60 38 28 19 3 350 341 329 321 315 312 309 312 309 305 301 302 303 303 300 293 290
315 319 333 326 324 330 340 340 338 338 339 359 344 340 344 353 349 349 360 67 64 65 78 93 113 96 72 52 35 26 24 16 0 346 334 324 319 317 313 314 312 308 303 299 300 301 299 296 291
316 322 314 322 321 324 324 329 332 336 342 339 344 338 343 358 350 354 11 65 76 60 75 86 103 84 77 54 36 24 11 1 359 349 337 328 322 319 316 316 312 308 303 300 298 296 294 290 287
303 312 312 312 318 324 329 330 331 336 344 342 347 335 335 346 351 349 1 60 77 79 78 73 82 94 99 64 40 22 18 11 2 354 343 335 331 326 321 318 313 307 305 302 298 294 290 286 283
295 300 303 308 311 313 323 341 334 334 333 334 343 339 343 342 350 344 350 46 62 43 64 65 36 91 110 55 30 18 13 4 0 355 348 341 335 329 324 319 314 309 306 303 299 292 285 285 284
295 297 297 304 307 309 321 323 336 330 325 336 341 335 328 333 341 338 338 19 355 23 24 35 24 21 10 15 10 7 4 0 358 356 350 343 336 332 328 324 320 315 310 305 303 298 291 288 287
293 285 287 294 305 307 315 315 324 325 324 327 326 324 325 328 332 328 322 297 298 311 307 323 337 7 1 350 349 355 356 355 354 350 346 341 338 335 330 326 323 320 315 310 308 306 295 289 284
276 276 279 284 295 304 304 311 311 313 312 318 316 318 322 326 324 323 293 254 247 255 272 295 306 347 7 344 345 349 351 350 348 347 344 341 340 339 335 331 325 318 313 312 309 313 302 294 287
277 272 274 288 287 298 300 303 312 312 310 312 310 304 313 324 316 297 273 270 230 247 288 260 284 324 348 360 350 348 346 347 348 346 345 344 342 340 335 331 322 318 313 316 317 314 308 298 291
277 278 278 283 289 294 300 304 302 306 299 310 302 304 314 320 307 276 276 253 249 263 264 268 281 302 338 357 348 347 346 349 348 347 347 346 344 341 336 333 332 324 321 321 322 313 310 300 292
274 278 283 287 288 292 298 299 303 292 267 305 297 296 305 315 302 284 246 254 279 265 262 246 230 241 313 349 349 348 350 351 351 352 354 351 346 344 342 335 329 326 325 324 322 321 311 302 293
282 280 281 286 288 282 291 295 305 263 298 292 291 270 267 306 298 275 252 252 256 263 254 244 218 237 339 348 350 352 356 354 355 355 352 346 344 340 342 338 332 330 327 325 327 323 316 306 293
279 279 283 284 289 292 294 294 256 264 296 302 287 264 261 285 309 235 229 243 230 261 268 241 236 244 337 347 351 356 358 356 353 351 349 346 344 339 337 336 333 334 333 334 327 322 316 308 293
279 282 280 289 294 293 296 294 265 288 305 248 301 300 294 302 259 237 236 235 266 250 229 199 196 212 328 351 353 356 360 358 354 351 350 346 343 343 340 341 338 342 345 339 328 322 312 304 290
273 273 279 286 285 291 292 294 270 301 302 280 306 311 309 251 246 255 242 240 241 220 195 184 168 179 332 355 356 359 360 357 358 357 354 348 343 342 341 340 344 347 345 338 325 322 314 300 285
268 273 276 279 286 287 286 293 270 274 294 290 300 300 256 261 256 298 279 271 251 213 190 172 162 148 45 359 358 1 357 359 359 0 1 5 3 1 358 349 346 349 345 335 331 330 321 301 284
271 272 274 277 284 281 285 281 273 276 289 281 269 272 268 264 279 330 326 284 237 191 187 175 167 155 14 360 360 357 355 359 359 4 9 15 20 13 1 348 350 2 351 346 348 339 312 299 282
266 269 271 262 279 280 278 272 273 273 275 289 257 266 267 276 319 331 332 255 202 189 181 174 168 149 26 11 1 358 359 2 3 8 13 16 9 3 3 359 10 17 16 6 7 351 289 281 253
263 266 265 263 277 277 277 272 269 273 286 291 288 281 282 295 320 329 314 273 208 181 168 159 150 120 54 12 1 2 2 2 3 10 10 14 15 15 37 71 64 54 55 61 96 200 335 234 230
252 265 270 263 268 273 281 271 267 276 274 276 273 283 278 312 333 340 345 334 153 150 145 136 121 91 40 22 9 4 2 359 12 13 12 16 19 28 47 72 85 98 108 146 173 177 193 195 196
268 274 273 267 266 269 266 259 268 287 273 260 269 273 266 318 334 2 79 96 121 133 134 123 102 74 46 28 18 9 3 12 17 18 17 15 24 41 53 69 100 124 147 169 169 180 185 197 200
271 271 276 271 266 248 250 246 262 279 266 269 275 294 299 6 32 66 75 102 118 123 120 107 95 77 46 32 25 18 13 23 21 21 15 21 37 61 81 101 131 165 168 173 178 179 187 197 204
254 264 271 265 256 233 267 263 243 275 237 300 260 262 329 52 65 79 98 114 121 124 117 100 95 64 48 34 39 20 23 27 26 23 32 37 66 100 105 120 170 195 179 181 184 192 193 195 199
245 252 255 247 247 260 266 246 260 280 201 231 248 322 58 92 74 88 107 121 123 123 111 99 95 60 53 42 40 33 35 32 32 29 46 60 97 111 121 151 191 197 206 187 186 186 184 202 212
249 247 250 258 266 259 259 253 270 268 241 256 285 320 99 110 98 104 115 124 122 121 114 110 93 68 71 65 53 51 52 47 42 50 68 84 119 122 136 160 208 209 205 197 187 184 190 202 209
247 247 245 248 253 256 266 259 246 277 273 285 306 106 112 111 105 107 121 123 121 118 113 108 91 81 84 70 71 70 71 59 61 76 78 110 134 137 151 166 214 212 213 204 202 198 207 207 204
236 240 249 248 249 260 257 256 267 247 247 262 304 116 127 113 120 116 125 124 118 113 116 108 94 86 81 76 83 88 81 70 66 74 101 130 132 144 150 169 207 219 210 212 217 202 197 202 198
235 238 240 245 242 242 255 251 270 265 245 259 228 101 109 116 115 119 127 124 119 118 122 114 102 99 91 92 91 93 89 73 89 109 121 139 135 150 161 154 183 221 222 226 209 199 201 201 206